Location: Monrovia
(34.7865°N, 86.7139°W)
Time: 15:09:53
(UTC+00:00)

Cosmos 2181 Rocket - Pass Details

Date: 14 July 2020
Orbit: 951 x 1016 km, 82.9° (Epoch: 12 August)

Event Time Altitude Azimuth Distance (km) Brightness Sun altitude
Rises 02:49:00 0° 351° (N) 3,691 7.9 -18.7°
Reaches altitude 10° 02:51:33 10° 349° (N) 2,730 7.2 -19.1°
Maximum altitude 02:57:45 71° 267° (W) 1,018 4.2 -20.0°
Enters shadow 03:01:55 21° 187° (S) 1,985 5.3 -20.5°
